Orbital Elements at Epoch 2459000.5 (2020-May-31.0) TDB
Reference: JPL 6 (heliocentric ecliptic J2000)
Element | Value | Uncertainty (1-sigma) | Units |
e | .5862706173184343 | 0.00057467 | |
a | 2.483015221455533 | 0.0034966 | au |
q | 1.027296354761729 | 1.9743e-05 | au |
i | 4.490468727847985 | 0.0031405 | deg |
node | 341.4219966953173 | 0.00013091 | deg |
peri | 11.23138625976281 | 0.0019546 | deg |
M | 73.83625917466303 | 0.9189 | deg |
tp | 2458707.387267249503 (2019-Aug-11.88726725) | 3.0287 | TDB |
period | 1429.116059909875 3.91 | 3.0187 0.008265 | d yr |
n | .251903963644984 | 0.0005321 | deg/d |
Q | 3.938734088149338 | 0.0055466 | au |
|
| | Orbit Determination Parameters
Additional Information
|